[[{"header":{"parameterUnit":"m.s-1","parameterCategory":1,"la1":30.2991,"la2":30.254,"lo1":-89.0895,"lo2":-89.0444,"dy":0.0017,"dx":0.0017,"nx":28,"ny":28,"refTime":"2025-04-09T03:00:00:Z","depth":0,"parameterNumber":2,"parameterNumberName":"U-component_of_WINDS"},"data":[0,0,0,0,0,0,0,0,0,0,0,0,0,0,0,0,0,0,0,0,0,0,0,0,0,0,0,0,0,0,0,0,0,0,0,0,0,0,0,0,0,0,0,0,0,0,0,0,0,0,0,0,0,0,0,0,0,0,2.4338,2.4338,0,2.4368,2.4368,2.4369,2.4298,2.4296,2.4293,2.4291,2.432,2.4323,2.4326,0,0,0,0,0,0,0,0,0,0,0,0,0,2.4215,2.4217,2.4337,2.4338,2.4338,2.4368,2.4368,2.4369,2.4298,2.4296,2.4293,2.429,2.4319,2.4323,2.4326,0,0,0,0,0,0,0,0,0,0,0,0,0,2.4259,2.4218,2.4337,2.4307,2.4304,2.4368,2.4368,2.4369,2.4299,2.4295,2.4292,2.4289,2.4318,2.4322,2.4326,2.4421,0,0,2.434,2.4341,0,0,0,0,0,0,0,0,2.4257,2.4264,2.4311,2.4309,2.4306,2.4326,2.4336,2.4386,2.43,2.4301,2.4291,2.4287,2.4325,2.4328,2.4341,2.4422,2.4423,2.434,2.4343,2.4344,2.4346,0,0,0,0,0,0,0,2.4254,2.4262,2.4349,2.4312,2.4309,2.429,2.4293,2.4345,2.4331,2.43,2.4295,2.43,2.4323,2.4337,2.4341,2.4424,2.434,2.4344,2.4346,2.4348,2.458,2.4583,0,0,0,0,0,0,2.4255,2.426,2.4348,2.435,2.4273,2.4295,2.4298,2.4323,2.433,2.4328,2.4303,2.4297,2.4332,2.4336,2.4342,2.445,2.4344,2.4348,2.4351,2.4576,2.4581,2.4584,0,0,0,0,0,0,2.4252,2.4263,2.4347,2.4304,2.4313,2.4301,2.4329,2.4325,2.434,2.4332,2.4329,2.4321,2.4329,2.4336,2.4401,2.445,2.435,2.4354,2.4572,2.4578,2.4583,2.4668,0,0,0,0,0,0,2.4249,2.4263,2.4299,2.4305,2.4316,2.4407,2.4332,2.4328,2.4348,2.434,2.4348,2.4346,2.4327,2.4395,2.4405,2.4454,2.4358,2.4567,2.4575,2.4581,2.4661,2.4676,2.4688,0,0,0,0,0,2.4245,2.4322,2.4302,2.4313,2.4361,2.441,2.4416,2.4393,2.4352,2.4387,2.4382,2.4346,2.4444,2.4402,2.4413,2.4464,2.4564,2.4573,2.458,2.4654,2.4673,2.4688,0,0,0,0,0,0,2.4322,2.4323,2.43,2.4381,2.4396,2.4398,2.4442,2.4413,2.4439,2.4431,2.4401,2.4403,2.4473,2.4476,2.4429,2.4554,2.4497,2.4507,2.4549,2.4567,2.458,2.4576,2.4361,0,0,0,0,0,2.4349,2.439,2.4387,2.446,2.4468,2.4454,2.4475,2.4456,2.447,2.4475,2.4475,2.4489,2.4523,2.4545,2.4576,2.4662,2.4661,2.4702,2.4716,2.4727,2.4736,2.4778,2.4795,2.4611,2.4611,2.4611,0,0,2.4404,2.4409,2.4437,2.4475,2.4484,2.4525,2.446,2.4507,2.4536,2.4482,2.4542,2.4543,2.4557,2.4632,2.4665,2.4636,2.4787,2.4738,2.4747,2.4749,2.4788,2.4806,2.4821,2.4616,2.4615,2.4614,0,0,2.4524,2.4534,2.4593,2.4604,2.4619,2.4609,2.4624,2.463,2.4628,2.4689,2.4648,2.4683,2.4743,2.4753,2.4766,2.489,2.4856,2.4901,2.4972,2.5014,2.5028,2.5041,2.5082,2.5097,2.491,2.4911,2.4911,0,2.459,2.4651,2.4628,2.4677,2.4694,2.4648,2.4706,2.4718,2.4742,2.4754,2.4722,2.4794,2.48,2.4875,2.4906,2.4919,2.4933,2.4898,2.5029,2.5041,2.5052,2.5091,2.5107,2.4916,2.4915,2.4915,2.4914,0,2.473,2.4773,2.4819,2.4844,2.4866,2.492,2.4903,2.4929,2.4909,2.4902,2.4963,2.4969,2.4998,2.5016,2.4997,2.5088,2.5069,2.5034,2.4975,2.5075,2.5111,2.5126,2.4923,2.4921,2.492,2.4918,0,0,2.4898,2.4908,2.4925,2.4935,2.4948,2.498,2.5032,2.5061,2.5082,2.5101,2.5141,2.5192,2.5159,2.5174,2.5155,2.5193,2.5286,2.5152,2.5152,2.5174,2.5384,2.5408,2.5426,2.5266,2.5268,2.5271,2.5382,0,2.5014,2.5102,2.5082,2.5168,2.5205,2.5163,2.5207,2.5219,2.5214,2.5245,2.5239,2.5274,2.523,2.5238,2.5273,2.5268,2.5328,2.526,2.53,2.5302,2.5294,2.5445,2.5471,2.5575,2.5396,2.5398,2.54,0,2.516,2.5184,2.5274,2.5279,2.5294,2.5335,2.5359,2.539,2.5402,2.5396,2.5413,2.5387,2.5435,2.5379,2.5445,2.5399,2.5415,2.5415,2.5418,2.5418,2.5354,2.5445,2.5608,2.5622,2.5422,2.542,2.5419,0,2.5269,2.5324,2.5384,2.5394,2.5403,2.5431,2.5436,2.5445,2.5464,2.5486,2.5497,2.5524,2.5538,2.556,2.5541,2.5502,2.5608,2.5551,2.5602,2.5602,2.5623,2.5621,2.5787,2.564,2.564,2.5639,2.5639,0,2.5398,2.5454,2.5432,2.5469,2.553,2.5506,2.5567,2.5566,2.5575,2.5609,2.5575,2.5608,2.5584,2.5614,2.56,2.5655,2.5662,2.5657,2.5652,2.5658,2.5658,2.5665,2.5656,2.5643,2.5643,2.5642,2.5641,0,2.5528,2.5516,2.5578,2.5582,2.5584,2.5628,2.563,2.5663,2.5657,2.5701,2.571,2.5698,2.5733,2.5717,2.5753,2.5744,2.5813,2.58,2.5808,2.5804,2.5854,2.5848,2.6027,2.6048,2.5891,2.5892,2.5893,0,2.5609,2.5651,2.5659,2.568,2.5687,2.5722,2.574,2.5719,2.574,2.5757,2.5787,2.5819,2.5842,2.5899,2.5893,2.592,2.5905,2.5966,2.5908,2.5913,2.5901,2.5898,2.59,2.5976,2.5978,2.5979,2.5981,0,2.5754,2.5746,2.5774,2.5801,2.5824,2.5844,2.5861,2.588,2.5859,2.5884,2.5918,2.5937,2.5973,2.6004,2.6027,2.6031,2.6002,2.5999,2.6012,2.6016,2.6018,2.6014,2.5836,2.5994,2.5993,2.5992,2.5991,2.5991,2.5859,2.5893,2.5904,2.5936,2.5947,2.5963,2.5993,2.5991,2.6019,2.6047,2.6034,2.6073,2.6083,2.6112,2.6119,2.6149,2.6125,2.6144,2.6148,2.6152,2.6157,2.6017,2.6154,2.6153,2.6153,2.6153,2.6152,0,2.5998,2.6003,2.6034,2.6058,2.6083,2.6055,2.6072,2.6094,2.613,2.6142,2.6166,2.6205,2.6235,2.6232,2.6258,2.6283,2.627,2.629,2.6286,2.6287,2.6179,2.6164,2.63,2.63,2.63,2.63,2.63,2.63,2.6074,2.6129,2.6122,2.6182,2.6186,2.6225,2.6236,2.625,2.626,2.6305,2.6329,2.6328,2.6333,2.636,2.6385,2.6383,2.6393,2.6418,2.6411,2.6309,2.6295,2.6281,2.6266,2.6421,2.6421,2.6515,2.6516,2.6517]},{"header":{"parameterUnit":"m.s-1","parameterCategory":1,"la1":30.2991,"la2":30.254,"lo1":-89.0895,"lo2":-89.0444,"dy":0.0017,"dx":0.0017,"nx":28,"ny":28,"refTime":"2025-04-09T03:00:00:Z","depth":0,"parameterNumber":3,"parameterNumberName":"V-component_of_WINDS"},"data":[0,0,0,0,0,0,0,0,0,0,0,0,0,0,0,0,0,0,0,0,0,0,0,0,0,0,0,0,0,0,0,0,0,0,0,0,0,0,0,0,0,0,0,0,0,0,0,0,0,0,0,0,0,0,0,0,0,0,2.3508,2.3509,0,2.3587,2.3588,2.3589,2.3561,2.3559,2.3557,2.3555,2.3635,2.3638,2.3642,0,0,0,0,0,0,0,0,0,0,0,0,0,2.3329,2.3333,2.3508,2.3509,2.351,2.3587,2.3588,2.3589,2.3561,2.3559,2.3557,2.3555,2.3634,2.3638,2.3643,0,0,0,0,0,0,0,0,0,0,0,0,0,2.3408,2.3334,2.3508,2.3505,2.3506,2.3587,2.3588,2.359,2.3561,2.3559,2.3556,2.3554,2.3632,2.3638,2.3643,2.3731,0,0,2.366,2.3663,0,0,0,0,0,0,0,0,2.3403,2.3414,2.3505,2.3506,2.3506,2.3561,2.3554,2.3637,2.3562,2.354,2.3555,2.3552,2.3612,2.362,2.364,2.3735,2.3738,2.3661,2.3664,2.3667,2.3668,0,0,0,0,0,0,0,2.3398,2.3411,2.3539,2.3506,2.3507,2.3499,2.3507,2.357,2.359,2.3542,2.354,2.355,2.3612,2.3635,2.3642,2.374,2.3661,2.3666,2.3669,2.3671,2.3907,2.391,0,0,0,0,0,0,2.3392,2.3406,2.3537,2.3542,2.3447,2.3504,2.3514,2.3546,2.359,2.3594,2.3552,2.3548,2.3626,2.3635,2.3645,2.3749,2.3667,2.3672,2.3675,2.3904,2.3908,2.3911,0,0,0,0,0,0,2.3389,2.3404,2.3534,2.3474,2.349,2.351,2.3547,2.3549,2.3572,2.3597,2.36,2.3572,2.3625,2.3637,2.3709,2.3751,2.3675,2.368,2.3901,2.3905,2.3909,2.3959,0,0,0,0,0,0,2.3384,2.3403,2.3438,2.3475,2.3493,2.3599,2.355,2.3553,2.3582,2.3578,2.3616,2.362,2.3624,2.3701,2.3715,2.3758,2.3684,2.3897,2.3903,2.3908,2.3954,2.3965,2.3974,0,0,0,0,0,2.3377,2.3449,2.344,2.3456,2.3537,2.3601,2.3611,2.3615,2.3585,2.362,2.3635,2.3619,2.3744,2.3709,2.3724,2.3769,2.3895,2.3901,2.3908,2.395,2.3963,2.3974,0,0,0,0,0,0,2.3417,2.3454,2.3444,2.353,2.3563,2.3596,2.364,2.3629,2.367,2.3664,2.3665,2.3674,2.3749,2.3766,2.3726,2.3855,2.3815,2.3825,2.3841,2.3854,2.3864,2.3858,2.3689,0,0,0,0,0,2.3436,2.3486,2.3515,2.3588,2.3605,2.3619,2.3648,2.3647,2.368,2.3694,2.3715,2.3748,2.3794,2.3825,2.3869,2.3956,2.3963,2.3994,2.4004,2.4012,2.4021,2.4065,2.4079,2.3932,2.3932,2.3932,0,0,2.3476,2.3502,2.3533,2.3597,2.3622,2.3672,2.3631,2.3687,2.3724,2.3702,2.3772,2.3789,2.3825,2.3904,2.394,2.3921,2.4062,2.402,2.4027,2.4031,2.4073,2.4087,2.41,2.3937,2.3936,2.3935,0,0,2.3573,2.3598,2.3661,2.3686,2.3725,2.3734,2.3748,2.3783,2.3793,2.3863,2.3847,2.389,2.3971,2.3997,2.4021,2.4124,2.411,2.4139,2.4191,2.4235,2.4246,2.4256,2.4292,2.4305,2.4147,2.4147,2.4147,0,2.3617,2.3694,2.3695,2.3751,2.3778,2.376,2.3822,2.3847,2.3898,2.3916,2.3894,2.3993,2.4016,2.41,2.4125,2.4146,2.4161,2.4135,2.4245,2.4255,2.4264,2.4298,2.4312,2.415,2.415,2.415,2.4149,0,2.3745,2.3798,2.3843,2.3892,2.3925,2.3984,2.3993,2.4025,2.402,2.4031,2.4101,2.4128,2.4176,2.4196,2.4193,2.4279,2.4265,2.4244,2.4204,2.4282,2.4314,2.4327,2.4155,2.4154,2.4153,2.4152,0,0,2.3872,2.3919,2.3936,2.3956,2.3996,2.4036,2.4093,2.414,2.4167,2.4202,2.4249,2.4316,2.4295,2.4322,2.4321,2.4359,2.4438,2.4333,2.4333,2.435,2.4533,2.4549,2.4564,2.4428,2.443,2.4432,2.4529,0,2.3972,2.4073,2.4074,2.4167,2.4214,2.4196,2.4245,2.4274,2.4285,2.4326,2.4337,2.4384,2.4354,2.437,2.4407,2.442,2.4474,2.4413,2.4471,2.4473,2.4462,2.4581,2.4599,2.4689,2.4542,2.4544,2.4546,0,2.4104,2.4142,2.4239,2.4269,2.4289,2.4333,2.4375,2.4415,2.4446,2.4451,2.4479,2.4471,2.4527,2.4485,2.4561,2.452,2.4543,2.4553,2.4556,2.4562,2.4514,2.4589,2.4718,2.4732,2.4566,2.4564,2.4563,0,2.4185,2.4261,2.4328,2.4347,2.4384,2.4415,2.4432,2.446,2.4487,2.4523,2.4541,2.4583,2.4606,2.4638,2.4641,2.461,2.4718,2.4676,2.4722,2.4722,2.4746,2.4745,2.488,2.4761,2.4761,2.4761,2.4761,0,2.4297,2.4357,2.4365,2.4407,2.4472,2.4471,2.4536,2.455,2.4575,2.4617,2.4604,2.4644,2.4645,2.4686,2.4688,2.475,2.4761,2.4765,2.4765,2.4767,2.4766,2.4782,2.4776,2.4765,2.4764,2.4763,2.4762,0,2.4401,2.4408,2.448,2.4508,2.4517,2.4564,2.4587,2.4626,2.4634,2.4688,2.47,2.4713,2.476,2.4766,2.482,2.4822,2.4896,2.489,2.4886,2.4885,2.4931,2.4926,2.5082,2.5101,2.497,2.4971,2.4972,0,2.4472,2.4517,2.4549,2.4577,2.4595,2.464,2.4667,2.4667,2.4696,2.4733,2.4767,2.4812,2.4848,2.4923,2.4937,2.4978,2.4972,2.5023,2.4978,2.4977,2.4972,2.4969,2.4973,2.5032,2.5034,2.5035,2.5036,0,2.4596,2.4597,2.4638,2.4679,2.4711,2.4744,2.4774,2.4797,2.4801,2.4833,2.4881,2.4909,2.4963,2.5008,2.5048,2.5063,2.505,2.5049,2.5062,2.5064,2.506,2.5062,2.491,2.5046,2.5045,2.5044,2.5044,2.5043,2.4685,2.4724,2.4752,2.4797,2.4819,2.4847,2.4884,2.4896,2.4936,2.498,2.4977,2.5029,2.5056,2.5108,2.5127,2.5166,2.5149,2.5168,2.5173,2.5177,2.5181,2.5054,2.5173,2.5173,2.5173,2.5172,2.5172,0,2.4809,2.4825,2.4866,2.4908,2.4943,2.4926,2.4958,2.4988,2.5034,2.506,2.5095,2.5148,2.5191,2.5207,2.5247,2.5276,2.527,2.5286,2.5284,2.5288,2.5195,2.5179,2.529,2.529,2.529,2.529,2.529,2.529,2.4877,2.4941,2.4945,2.5019,2.5034,2.5085,2.5104,2.5129,2.515,2.521,2.5245,2.5255,2.5276,2.5318,2.5355,2.5359,2.5374,2.5393,2.5394,2.5307,2.5295,2.5283,2.5269,2.5396,2.5397,2.5483,2.5484,2.5485]}]]